FW5656 Weather Reports


time (UTC)temp
F
wind
direction
speed
knots
gust
knots
rain 1hr
in
rain 24hr
in
rain mn
in
humidity
%
barometer
mb
20260504081558 54 226 2.6 5.2 0.00 0.00 0.00 83 1007.5
20260504044534 57 224 3.5 7.8 0.00 0.00 0.00 73 1009.2
20260504043036 57 235 3.5 4.3 0.00 0.00 0.00 73 1009.7
20260504041529 57 236 4.3 7.8 0.00 0.00 0.00 72 1009.4
20260504040028 58 233 5.2 7.8 0.00 0.00 0.00 70 1009.4
20260504034528 58 216 3.5 5.2 0.00 0.00 0.00 69 1009.4
20260504033026 59 205 3.5 10.4 0.00 0.00 0.00 68 1009.4
20260504031526 60 205 5.2 10.4 0.00 0.00 0.00 68 1009.7
20260504030026 60 203 7.0 13.0 0.00 0.00 0.00 67 1009.8
20260504024532 61 217 5.2 11.3 0.00 0.00 0.00 65 1009.3
20260504023025 61 224 9.6 18.2 0.00 0.00 0.00 64 1009.8
20260504021525 61 213 8.7 13.0 0.00 0.00 0.00 64 1009.5
20260504020022 61 191 9.6 13.0 0.00 0.00 0.00 65 1009.6
20260504014522 61 187 8.7 13.9 0.00 0.00 0.00 63 1009.7
20260504013032 62 207 10.4 17.4 0.00 0.00 0.00 63 1009.3
20260504011521 62 215 8.7 15.6 0.00 0.00 0.00 60 1009.0
20260504010020 63 213 8.7 19.1 0.00 0.00 0.00 61 1009.1
20260504004524 63 203 10.4 17.4 0.00 0.00 0.00 60 1009.1
20260504003034 64 235 4.3 11.3 0.00 0.00 0.00 60 1009.0
20260504001518 64 188 4.3 8.7 0.00 0.00 0.00 59 1009.2
20260504000018 64 190 5.2 9.6 0.00 0.00 0.00 59 1009.2
20260503234517 65 210 10.4 15.6 0.00 0.00 0.00 55 1009.1
20260503233015 66 227 12.2 19.1 0.00 0.00 0.00 54 1008.9
20260503231512 66 233 12.2 17.4 0.00 0.00 0.00 53 1009.6
20260503230010 67 222 13.9 19.1 0.00 0.00 0.00 51 1010.3
20260503224511 68 223 11.3 18.2 0.00 0.00 0.00 50 1010.5
20260503223006 67 194 9.6 19.1 0.00 0.00 0.00 54 1010.4
20260503221506 66 223 10.4 20.0 0.00 0.00 0.00 52 1010.6
20260503220007 66 191 10.4 20.0 0.00 0.00 0.00 53 1010.7
20260503214501 66 211 13.9 21.7 0.00 0.00 0.00 53 1010.9
20260503213059 67 155 13.0 20.0 0.00 0.00 0.00 53 1011.0
20260503211558 66 205 10.4 19.1 0.00 0.00 0.00 58 1011.2
20260503210054 65 195 13.9 21.7 0.00 0.00 0.00 54 1011.0
20260503204556 64 214 12.2 24.3 0.00 0.00 0.00 56 1011.1
20260503203051 64 212 13.0 21.7 0.00 0.00 0.00 57 1010.8
20260503201547 64 228 13.0 24.3 0.00 0.00 0.00 56 1011.4
20260503200044 62 211 7.0 18.2 0.00 0.00 0.00 61 1012.3
20260503194544 61 219 12.2 20.0 0.00 0.00 0.00 60 1012.7
20260503193041 61 219 8.7 17.4 0.00 0.00 0.00 59 1013.0
20260503191538 61 196 9.6 15.6 0.00 0.00 0.00 58 1013.4
20260503190034 60 221 11.3 15.6 0.00 0.00 0.00 59 1014.4
20260503184548 60 212 9.6 20.0 0.00 0.00 0.00 59 1014.2
20260503183033 61 214 13.9 22.6 0.00 0.00 0.00 55 1014.3
20260503181532 62 193 13.0 20.9 0.00 0.00 0.00 56 1014.3
20260503180035 61 205 11.3 21.7 0.00 0.00 0.00 56 1015.0
20260503174531 62 212 14.8 23.5 0.00 0.00 0.00 55 1015.3
20260503173033 63 221 11.3 20.9 0.00 0.00 0.00 56 1015.7
20260503171521 63 232 13.0 18.2 0.00 0.00 0.00 56 1015.9